User: anonymous   Login
Location: Newark
(49.0000°N, 111.9667°W)
Time: 16:10:23
(UTC+00:00)
Language:

ISS - Orbit

View from above orbital plane
View from above orbital plane
View from above satellite
View from above satellite

Ground track
Ground track

The orbit data is extracted from the following two-line orbital elements,

1 25544U 98067A   19262.50939719  .00016717  00000-0  10270-3 0  9033
2 25544  51.6395 253.4689 0007440  62.8760 297.3148 15.50070352 29881
Epoch (UTC): 19 September 2019 12:13:31
Eccentricity: 0.0007440
inclination: 51.6395°
perigee height: 411 km
apogee height: 421 km
right ascension of ascending node: 253.4689°
argument of perigee: 62.8760°
revolutions per day: 15.50070352
mean anomaly at epoch: 297.3148°
orbit number at epoch: 2988

The dashed part of the orbit path shows where the satellite is in the earth's shadow,  

DLR